Location: Cran-Gévrier
(45.9039°N, 6.1012°E)
Time: 17:33:34
(UTC+00:00)

Cosmos 1844 Rocket - Visible Passes

Search period start: 19 April 2025 00:00
Search period end: 29 April 2025 00:00
Orbit: 823 x 844 km, 71.0° (Epoch: 18 April)

Date Brightness Start Highest point End Pass type
(mag) Time Alt. Az. Time Alt. Az. Time Alt. Az.
19 Apr 3.3 19:10:53 10° NNW 19:16:16 43° NE 19:21:20 11° SE visible
19 Apr 4.0 20:55:01 10° NW 21:00:00 33° WSW 21:02:59 20° SSW visible
20 Apr 3.4 18:53:23 10° NNW 18:58:41 39° NE 19:03:58 10° ESE visible
20 Apr 3.9 20:37:22 10° NW 20:42:29 36° WSW 20:46:19 16° SSW visible
21 Apr 3.8 20:19:45 10° NW 20:24:59 40° WSW 20:29:42 12° S visible
22 Apr 3.7 20:02:08 10° NW 20:07:28 43° WSW 20:12:47 10° S visible
23 Apr 3.6 19:44:32 10° NW 19:49:58 48° WSW 19:55:22 10° S visible
24 Apr 3.5 19:26:57 10° NW 19:32:27 53° WSW 19:37:55 10° S visible
25 Apr 3.3 19:09:21 10° NNW 19:14:55 58° WSW 19:20:27 10° S visible
28 Apr 5.5 20:03:33 10° WNW 20:05:10 11° W 20:06:48 10° WSW visible
